Location: Miles
(41.4492°N, 81.6087°W)
Time: 21:39:42
(UTC+00:00)

Courier 1B Rocket - Pass Details

Date: 20 September 2024
Orbit: 920 x 1201 km, 28.2° (Epoch: 09 October)

Event Time Altitude Azimuth Distance (km) Brightness Sun altitude
Rises 23:49:13 0° 254° (WSW) 3,720 9.6 -5.2°
Reaches altitude 10° 23:53:15 10° 231° (SW) 2,828 8.2 -5.9°
Maximum altitude 23:56:43 14° 201° (SSW) 2,563 7.4 -6.6°
Drops below altitude 10° 00:00:18 10° 170° (S) 2,932 7.3 -7.2°
Sets 00:04:38 0° 148° (SSE) 3,950 7.8 -8.0°
